Tracking 27428 objects as of 31-May-2023
HD Live streaming from Space Station
objects crossing your sky now

TITAN 3C TRANSTAGE R/B

Track TITAN 3C TRANSTAGE R/B now!


NORAD ID: 5854
Int'l Code: 1972-010B
Perigee: 35,413.8 km
Apogee: 35,946.8 km
Inclination: 2.0 °
Period: 1,430.3 minutes
Semi major axis: 42051 km
RCS: Unknown
Launch date: March 1, 1972
Source: United States (US)
Launch site: AIR FORCE EASTERN TEST RANGE (AFETR)

Note: This is a ROCKET BODY
Your satellite tracking list
Your tracking list is empty




NASA's NSSDC Master Catalog

Two Line Element Set (TLE):
1 05854U 72010B   23150.91887860  .00000013  00000-0  00000-0 0  9994
2 05854   1.9672 275.0278 0063381 138.0935 222.6654  1.00677770 13691
Source of the keplerian elements: McCants